GFSMW_700_temp_018.txt.gz
Temp
6 5 5 5 5 4 4 3 3 3 2 2 2 1 1 1 1 1 0 0 0 -0 -1 -1 -1 -2 -2 -3 -3 -3 -3 -3 -3 -3 -3 -3 -3 -3 -3 -3 -4 -4 -4
6 5 5 5 4 3 3 3 2 2 2 1 1 0 0 0 0 -0 -0 -1 -1 -1 -1 -1 -1 -2 -3 -3 -3 -3 -3 -3 -3 -3 -3 -3 -3 -3 -3 -3 -4 -4 -4
4 4 4 4 4 3 2 2 1 1 1 0 -0 -1 -1 -1 -1 -1 -1 -1 -1 -2 -2 -2 -2 -2 -2 -3 -3 -4 -4 -4 -4 -3 -4 -3 -3 -3 -3 -4 -4 -4 -4
4 4 4 4 3 2 2 1 1 0 0 -0 -0 -1 -1 -1 -1 -2 -2 -2 -2 -2 -2 -2 -2 -2 -3 -3 -4 -5 -5 -5 -5 -5 -4 -4 -4 -4 -4 -4 -4 -4 -4
3 3 2 2 2 2 1 1 0 -0 -1 -1 -1 -2 -2 -2 -2 -1 -1 -1 -1 -1 -1 -2 -2 -2 -3 -3 -4 -4 -5 -6 -6 -6 -6 -6 -5 -5 -5 -5 -4 -4 -4
3 2 2 2 1 1 1 0 -0 -1 -1 -1 -2 -2 -2 -2 -2 -2 -2 -2 -2 -2 -2 -2 -2 -2 -3 -3 -4 -5 -5 -6 -6 -6 -6 -7 -7 -7 -7 -6 -5 -5 -5
2 2 2 1 1 1 -0 -1 -1 -1 -2 -3 -3 -3 -2 -2 -2 -2 -2 -2 -2 -2 -3 -2 -3 -3 -3 -4 -4 -5 -6 -6 -6 -6 -6 -6 -7 -8 -8 -8 -8 -8 -7
2 1 0 0 0 -1 -1 -2 -2 -3 -3 -2 -2 -2 -2 -2 -2 -2 -2 -3 -3 -3 -3 -3 -3 -4 -5 -5 -6 -6 -7 -6 -6 -6 -9 -8 -8 -8 -8 -8 -9 -9 -8
-0 -0 -0 -0 -1 -2 -2 -3 -3 -3 -2 -2 -3 -3 -3 -3 -3 -3 -3 -3 -3 -4 -5 -5 -6 -6 -7 -7 -8 -8 -7 -7 -8 -9 -9 -9 -9 -9 -9 -9 -10 -10 -9
-1 -2 -2 -1 -1 -2 -2 -2 -2 -2 -2 -3 -3 -3 -3 -3 -3 -3 -3 -3 -4 -5 -6 -8 -8 -9 -9 -8 -9 -9 -8 -9 -9 -9 -9 -10 -10 -10 -11 -11 -11 -11 -12
-1 -1 -1 -1 -1 -2 -2 -2 -2 -3 -3 -4 -4 -4 -4 -4 -3 -3 -3 -3 -5 -7 -9 -9 -9 -10 -10 -10 -9 -9 -10 -10 -10 -11 -11 -11 -12 -11 -11 -12 -12 -12 -12
-1 -1 -1 -2 -2 -2 -2 -2 -4 -4 -4 -5 -4 -4 -4 -4 -4 -4 -5 -6 -7 -9 -10 -10 -10 -10 -11 -11 -11 -11 -11 -11 -11 -11 -11 -12 -12 -12 -12 -12 -12 -13 -13
-2 -2 -2 -3 -3 -3 -4 -5 -5 -5 -5 -5 -5 -5 -5 -5 -6 -6 -7 -8 -10 -10 -10 -11 -11 -12 -12 -12 -12 -12 -12 -13 -12 -13 -13 -13 -13 -13 -13 -13 -13 -13 -13
-3 -3 -3 -4 -4 -6 -6 -5 -6 -6 -6 -5 -5 -6 -6 -7 -7 -8 -10 -11 -11 -11 -12 -12 -12 -12 -13 -13 -13 -13 -13 -13 -13 -13 -13 -13 -13 -13 -14 -14 -14 -14 -14
-3 -4 -4 -5 -6 -5 -6 -6 -6 -6 -6 -5 -6 -7 -8 -9 -9 -10 -11 -11 -12 -12 -12 -12 -13 -14 -15 -14 -14 -14 -14 -14 -14 -14 -14 -14 -14 -14 -14 -14 -14 -14 -14
-4 -4 -5 -6 -6 -6 -6 -5 -6 -6 -6 -7 -8 -9 -10 -11 -11 -11 -12 -12 -12 -13 -14 -14 -14 -14 -14 -14 -14 -14 -14 -14 -14 -14 -14 -14 -14 -14 -14 -14 -15 -15 -14
-5 -5 -6 -7 -6 -6 -6 -6 -6 -6 -7 -8 -9 -11 -11 -12 -12 -12 -13 -13 -14 -14 -14 -14 -14 -14 -14 -15 -15 -15 -15 -15 -15 -15 -14 -14 -14 -14 -14 -15 -15 -15 -15
-5 -6 -7 -6 -6 -6 -6 -7 -7 -8 -9 -9 -10 -12 -12 -12 -13 -13 -13 -14 -15 -14 -14 -15 -15 -15 -15 -15 -15 -15 -15 -15 -15 -15 -15 -15 -15 -15 -15 -15 -15 -15 -15
-7 -7 -7 -7 -6 -7 -7 -8 -9 -9 -10 -11 -12 -12 -13 -13 -13 -14 -15 -15 -15 -15 -15 -15 -15 -15 -15 -16 -16 -16 -15 -15 -15 -15 -15 -15 -15 -15 -15 -16 -15 -15 -15
-8 -7 -7 -7 -7 -8 -8 -9 -10 -10 -11 -12 -12 -13 -13 -13 -14 -15 -15 -15 -15 -15 -15 -15 -16 -16 -16 -16 -16 -16 -16 -15 -15 -15 -15 -16 -16 -16 -16 -16 -15 -15 -15
-8 -8 -8 -8 -8 -9 -10 -10 -11 -12 -13 -13 -13 -14 -14 -15 -15 -15 -15 -15 -15 -15 -16 -16 -16 -16 -16 -17 -16 -16 -16 -16 -15 -15 -15 -15 -15 -16 -16 -16 -16 -16 -16
-8 -8 -8 -8 -9 -10 -11 -11 -12 -13 -13 -14 -14 -14 -15 -16 -16 -16 -15 -15 -16 -16 -16 -16 -16 -17 -17 -17 -17 -16 -16 -16 -16 -16 -15 -15 -15 -16 -16 -17 -17 -17 -16
-8 -8 -9 -9 -10 -11 -11 -12 -13 -14 -14 -14 -15 -15 -15 -16 -16 -16 -16 -16 -16 -16 -16 -17 -17 -17 -17 -17 -17 -17 -17 -17 -16 -16 -16 -15 -15 -16 -16 -17 -17 -17 -16
-9 -9 -10 -10 -11 -12 -13 -13 -14 -14 -14 -15 -15 -15 -16 -16 -16 -16 -16 -16 -17 -17 -17 -17 -17 -17 -17 -17 -17 -17 -17 -16 -16 -16 -16 -15 -16 -16 -16 -17 -17 -17 -16
-9 -10 -10 -11 -11 -12 -13 -13 -14 -15 -15 -15 -15 -16 -16 -16 -16 -16 -17 -17 -17 -18 -17 -17 -18 -17 -17 -17 -17 -17 -17 -16 -16 -16 -16 -16 -16 -16 -16 -16 -17 -17 -16
-10 -11 -11 -11 -12 -13 -13 -14 -14 -15 -15 -15 -16 -16 -16 -16 -16 -17 -17 -18 -18 -18 -18 -18 -18 -18 -18 -18 -18 -18 -17 -16 -16 -16 -16 -16 -16 -16 -16 -16 -16 -16 -16

GFSMW_700_temp_021.txt.gz
Temp
6 5 5 5 5 5 4 3 3 2 2 1 1 1 1 0 0 -0 -0 -0 -1 -1 -1 -1 -1 -1 -1 -1 -1 -2 -2 -2 -3 -3 -3 -3 -3 -3 -3 -3 -3 -3 -3
5 5 4 4 4 4 3 2 2 2 1 1 1 0 -0 -1 -1 -1 -1 -2 -2 -2 -2 -1 -1 -1 -1 -1 -1 -1 -2 -3 -3 -4 -4 -4 -3 -3 -3 -4 -4 -4 -4
4 4 4 4 4 3 3 2 1 1 1 0 -0 -1 -1 -1 -2 -2 -2 -2 -2 -2 -2 -1 -2 -2 -2 -2 -2 -2 -2 -2 -3 -4 -5 -5 -4 -4 -4 -4 -4 -4 -4
3 3 3 3 3 2 1 1 1 0 0 -0 -0 -1 -1 -2 -2 -2 -2 -2 -2 -1 -1 -1 -2 -2 -2 -2 -2 -3 -3 -4 -4 -4 -5 -5 -4 -5 -5 -4 -4 -4 -4
3 3 3 2 2 1 1 1 1 0 -0 -0 -1 -1 -2 -2 -2 -2 -2 -2 -2 -1 -2 -2 -2 -2 -2 -2 -3 -3 -3 -4 -5 -5 -5 -5 -5 -5 -5 -5 -6 -5 -5
2 2 2 2 1 1 1 1 0 -0 -0 -1 -2 -2 -2 -2 -2 -2 -3 -3 -2 -2 -2 -2 -2 -2 -2 -2 -3 -3 -4 -4 -5 -5 -5 -5 -6 -6 -6 -5 -6 -6 -5
2 2 1 1 1 1 1 0 -0 -1 -2 -2 -2 -2 -3 -3 -4 -3 -3 -3 -3 -3 -3 -3 -2 -2 -2 -3 -3 -4 -5 -5 -6 -6 -6 -6 -6 -6 -6 -7 -7 -7 -6
1 0 0 0 -0 -0 -0 -0 -1 -2 -2 -3 -3 -4 -5 -4 -4 -3 -3 -3 -3 -3 -3 -3 -3 -3 -4 -5 -6 -7 -7 -8 -9 -8 -7 -7 -8 -8 -9 -9 -9 -9 -9
0 -0 -0 -1 -1 -1 -2 -2 -2 -2 -2 -3 -4 -4 -4 -4 -4 -4 -4 -4 -4 -4 -4 -4 -4 -5 -7 -8 -8 -9 -10 -9 -9 -9 -9 -9 -9 -9 -9 -9 -10 -10 -9
-1 -1 -2 -2 -2 -2 -2 -3 -3 -3 -4 -4 -4 -5 -5 -5 -4 -4 -4 -4 -4 -4 -5 -7 -8 -9 -9 -10 -10 -10 -10 -10 -10 -10 -10 -9 -10 -10 -11 -11 -11 -11 -11
-2 -2 -2 -2 -3 -3 -3 -3 -3 -3 -4 -5 -5 -5 -4 -4 -4 -5 -5 -5 -6 -7 -8 -10 -10 -10 -10 -10 -10 -11 -11 -11 -11 -11 -12 -12 -13 -13 -13 -13 -12 -12 -12
-2 -2 -2 -2 -2 -3 -3 -3 -3 -4 -5 -5 -5 -4 -5 -5 -6 -5 -6 -7 -8 -9 -11 -11 -11 -11 -11 -11 -12 -12 -12 -12 -12 -12 -13 -13 -13 -13 -13 -13 -13 -13 -13
-3 -2 -2 -3 -3 -3 -3 -4 -5 -6 -5 -5 -5 -5 -6 -6 -7 -8 -8 -9 -10 -11 -12 -12 -12 -12 -12 -12 -12 -12 -13 -13 -14 -14 -13 -13 -13 -13 -13 -13 -13 -13 -13
-3 -3 -3 -3 -4 -4 -5 -6 -5 -5 -5 -5 -5 -6 -6 -8 -9 -10 -10 -11 -11 -12 -12 -13 -13 -13 -13 -13 -14 -14 -14 -14 -14 -14 -14 -14 -14 -14 -14 -14 -14 -14 -14
-3 -4 -4 -4 -5 -6 -6 -5 -5 -5 -5 -6 -6 -7 -8 -9 -10 -11 -11 -12 -12 -12 -13 -13 -14 -14 -14 -14 -14 -14 -14 -14 -14 -14 -15 -15 -15 -15 -15 -15 -14 -14 -14
-4 -4 -4 -4 -6 -6 -6 -6 -5 -6 -6 -7 -8 -9 -10 -11 -12 -12 -12 -13 -13 -14 -14 -14 -14 -14 -15 -15 -15 -15 -15 -15 -15 -15 -15 -15 -15 -15 -15 -15 -15 -14 -14
-3 -4 -5 -6 -7 -6 -6 -6 -6 -7 -8 -9 -10 -10 -11 -12 -12 -12 -13 -13 -14 -15 -15 -15 -15 -15 -15 -15 -15 -15 -15 -15 -15 -15 -15 -15 -15 -15 -15 -15 -15 -15 -15
-5 -6 -6 -7 -7 -7 -7 -7 -8 -8 -9 -10 -11 -12 -12 -13 -13 -13 -14 -14 -15 -15 -15 -15 -15 -15 -15 -16 -16 -16 -16 -16 -15 -16 -16 -15 -15 -15 -16 -15 -15 -15 -15
-6 -8 -8 -7 -7 -8 -8 -8 -9 -9 -10 -11 -12 -13 -13 -14 -14 -15 -15 -15 -15 -15 -15 -15 -15 -16 -16 -16 -16 -16 -16 -16 -16 -16 -16 -16 -16 -16 -16 -16 -15 -15 -15
-9 -8 -8 -8 -8 -8 -9 -9 -9 -10 -11 -12 -13 -14 -14 -14 -15 -15 -15 -15 -16 -16 -16 -16 -16 -16 -16 -17 -17 -17 -16 -16 -16 -16 -16 -16 -16 -16 -16 -16 -16 -16 -16
-9 -8 -8 -8 -9 -9 -9 -9 -10 -11 -12 -13 -14 -14 -15 -15 -15 -15 -16 -16 -16 -16 -16 -16 -16 -17 -17 -17 -17 -17 -17 -17 -16 -16 -16 -16 -16 -16 -16 -16 -16 -16 -17
-9 -8 -8 -9 -9 -10 -10 -10 -11 -12 -13 -14 -15 -15 -15 -15 -15 -16 -16 -16 -16 -16 -16 -16 -17 -17 -17 -18 -17 -17 -17 -17 -17 -17 -17 -16 -16 -16 -16 -16 -16 -17 -17
-9 -9 -9 -9 -10 -11 -11 -12 -12 -13 -14 -15 -15 -15 -15 -16 -16 -16 -16 -16 -16 -16 -17 -17 -17 -17 -18 -18 -18 -18 -18 -18 -18 -17 -17 -16 -16 -16 -16 -16 -16 -16 -16
-9 -9 -9 -9 -10 -11 -12 -13 -13 -14 -14 -15 -15 -15 -16 -16 -16 -16 -16 -17 -17 -17 -17 -17 -18 -18 -18 -18 -18 -18 -18 -18 -17 -17 -17 -16 -16 -16 -16 -16 -16 -16 -16
-9 -10 -10 -10 -11 -12 -13 -14 -14 -14 -14 -15 -15 -15 -16 -16 -16 -16 -17 -17 -17 -17 -18 -18 -18 -18 -18 -18 -18 -18 -18 -18 -17 -17 -17 -16 -16 -16 -16 -16 -16 -16 -16
-10 -11 -11 -11 -11 -12 -13 -14 -14 -14 -15 -15 -15 -16 -16 -16 -16 -16 -17 -18 -18 -18 -18 -18 -18 -18 -18 -19 -19 -19 -18 -18 -17 -17 -17 -16 -16 -16 -16 -16 -15 -16 -16

GFSMW_700_temp_024.txt.gz
Temp
6 5 5 5 5 4 4 3 3 3 2 2 1 1 1 0 0 -0 -0 -1 -1 -1 -1 -2 -2 -2 -1 -1 -1 -2 -2 -2 -2 -2 -1 -1 -2 -2 -2 -2 -2 -2 -2
5 5 5 4 4 4 4 3 3 2 2 1 1 1 0 -0 -0 -1 -1 -1 -2 -2 -2 -2 -2 -1 -2 -2 -2 -2 -2 -2 -2 -2 -3 -3 -3 -3 -1 -2 -2 -3 -3
5 4 4 4 4 4 3 3 2 2 1 1 1 0 -0 -0 -1 -1 -2 -2 -2 -2 -2 -2 -2 -2 -2 -2 -2 -2 -2 -2 -2 -3 -3 -4 -5 -5 -5 -4 -2 -3 -3
4 4 4 4 3 3 2 2 1 1 1 1 0 -0 -1 -1 -1 -1 -1 -2 -2 -2 -2 -2 -2 -2 -2 -2 -2 -2 -2 -2 -2 -3 -3 -3 -4 -4 -5 -5 -5 -4 -4
3 3 3 2 2 1 1 1 1 1 0 0 -0 -1 -1 -2 -2 -2 -2 -2 -2 -2 -2 -3 -3 -3 -2 -2 -2 -2 -2 -2 -2 -3 -4 -5 -5 -5 -4 -5 -5 -5 -5
2 2 2 2 1 1 1 1 0 0 -0 -0 -1 -1 -2 -2 -2 -2 -2 -3 -3 -3 -3 -3 -3 -3 -3 -3 -3 -3 -3 -3 -4 -4 -5 -5 -6 -6 -6 -5 -5 -5 -6
2 2 1 1 1 1 0 0 -0 -0 -1 -1 -1 -1 -2 -2 -3 -3 -4 -4 -4 -3 -3 -3 -3 -4 -4 -4 -4 -4 -5 -5 -6 -6 -6 -7 -7 -7 -7 -6 -6 -6 -6
1 1 1 1 0 -0 -1 -1 -1 -1 -1 -2 -2 -2 -3 -3 -4 -4 -4 -4 -4 -4 -4 -4 -4 -4 -5 -5 -6 -7 -8 -8 -8 -8 -8 -8 -9 -8 -7 -8 -8 -9 -9
1 1 -1 -1 -2 -2 -2 -2 -2 -2 -2 -2 -3 -3 -4 -4 -4 -4 -4 -4 -4 -4 -5 -5 -6 -7 -8 -8 -10 -10 -10 -10 -10 -10 -10 -10 -10 -10 -10 -10 -10 -10 -10
-0 -1 -2 -2 -2 -2 -2 -2 -2 -2 -2 -2 -3 -4 -4 -4 -4 -4 -4 -5 -5 -6 -7 -8 -9 -9 -10 -10 -11 -11 -11 -11 -11 -10 -10 -10 -10 -10 -10 -10 -10 -11 -11
-1 -2 -2 -2 -2 -2 -2 -2 -3 -3 -3 -4 -4 -4 -4 -5 -5 -5 -6 -6 -7 -8 -9 -10 -11 -11 -11 -11 -11 -11 -12 -12 -12 -12 -12 -12 -12 -12 -13 -13 -14 -13 -13
-3 -2 -2 -3 -3 -3 -3 -3 -4 -4 -5 -5 -5 -5 -5 -5 -6 -6 -8 -9 -10 -10 -10 -11 -12 -12 -12 -12 -12 -12 -12 -12 -13 -13 -13 -13 -14 -13 -13 -13 -13 -13 -14
-2 -2 -3 -3 -3 -3 -3 -4 -5 -5 -5 -5 -5 -5 -5 -6 -7 -8 -9 -10 -10 -11 -11 -12 -13 -13 -13 -13 -13 -13 -14 -15 -15 -14 -14 -14 -14 -14 -13 -13 -13 -13 -13
-3 -3 -3 -4 -4 -4 -5 -6 -6 -6 -5 -5 -6 -6 -6 -7 -9 -10 -10 -11 -12 -13 -13 -13 -14 -14 -14 -14 -14 -14 -14 -14 -14 -14 -14 -14 -14 -14 -14 -14 -14 -14 -14
-4 -4 -4 -5 -5 -5 -6 -6 -6 -6 -6 -6 -6 -7 -8 -9 -10 -12 -12 -12 -12 -13 -13 -14 -14 -15 -15 -15 -15 -15 -15 -15 -15 -15 -15 -15 -15 -15 -15 -15 -15 -15 -15
-4 -4 -5 -5 -6 -6 -6 -6 -6 -6 -7 -7 -8 -9 -10 -11 -12 -12 -13 -13 -13 -14 -14 -15 -15 -15 -15 -15 -15 -15 -15 -15 -15 -15 -15 -15 -15 -15 -15 -15 -15 -15 -15
-5 -5 -6 -6 -7 -7 -6 -6 -7 -7 -8 -9 -9 -10 -11 -12 -13 -13 -14 -14 -14 -15 -15 -15 -15 -15 -16 -15 -16 -16 -16 -16 -16 -16 -16 -16 -16 -16 -15 -15 -15 -15 -15
-5 -5 -6 -7 -8 -7 -7 -7 -8 -8 -9 -9 -11 -11 -12 -13 -14 -14 -14 -15 -15 -15 -15 -15 -16 -16 -16 -16 -16 -16 -16 -16 -16 -16 -16 -16 -16 -16 -16 -16 -15 -16 -15
-5 -6 -7 -8 -8 -8 -8 -8 -9 -9 -10 -11 -11 -12 -13 -14 -14 -14 -15 -15 -15 -15 -16 -16 -16 -16 -16 -16 -17 -17 -16 -16 -16 -16 -16 -16 -16 -16 -16 -16 -16 -16 -15
-7 -8 -9 -9 -8 -8 -8 -9 -10 -10 -11 -11 -12 -13 -14 -15 -15 -15 -15 -15 -16 -16 -16 -16 -16 -16 -17 -17 -17 -17 -17 -17 -17 -17 -17 -17 -17 -17 -17 -16 -16 -16 -16
-9 -8 -9 -9 -9 -9 -9 -10 -10 -11 -11 -12 -13 -14 -15 -15 -15 -15 -15 -15 -16 -16 -16 -16 -16 -17 -17 -17 -17 -17 -18 -17 -17 -17 -17 -17 -17 -17 -17 -16 -16 -16 -16
-8 -9 -9 -9 -9 -9 -10 -10 -11 -12 -12 -13 -14 -15 -15 -15 -15 -16 -16 -16 -16 -16 -16 -17 -17 -17 -17 -18 -18 -18 -18 -18 -18 -18 -18 -17 -17 -17 -16 -16 -16 -16 -17
-9 -9 -10 -10 -10 -10 -11 -11 -12 -12 -13 -13 -14 -15 -15 -15 -16 -16 -16 -16 -16 -16 -17 -17 -17 -18 -18 -18 -18 -18 -18 -19 -18 -18 -18 -17 -17 -17 -16 -16 -16 -16 -17
-9 -9 -10 -10 -11 -11 -11 -12 -12 -13 -14 -14 -14 -15 -15 -16 -16 -16 -16 -16 -17 -17 -17 -17 -18 -18 -18 -18 -18 -19 -18 -19 -18 -18 -18 -17 -17 -17 -16 -16 -16 -16 -17
-10 -11 -11 -12 -12 -12 -12 -13 -13 -13 -14 -14 -15 -15 -15 -16 -16 -16 -16 -17 -17 -17 -17 -18 -18 -18 -18 -18 -19 -19 -19 -18 -18 -18 -17 -17 -17 -17 -17 -16 -16 -16 -16
-11 -12 -12 -12 -13 -13 -13 -14 -14 -14 -14 -14 -15 -15 -16 -16 -16 -16 -16 -16 -17 -17 -17 -18 -18 -18 -18 -19 -19 -19 -19 -18 -18 -18 -17 -17 -17 -17 -17 -17 -16 -16 -16

GFSMW_700_temp_027.txt.gz
Temp
5 5 6 5 5 4 4 4 4 4 3 3 2 2 1 1 1 0 0 -0 -0 -1 -1 -0 -1 -2 -2 -2 -1 -1 -1 -1 -2 -2 -1 -1 -1 -1 -1 -1 -1 -2 -1
6 6 5 5 5 4 4 4 4 3 3 2 2 2 1 1 1 0 0 -0 -1 -1 -2 -2 -2 -2 -2 -2 -2 -2 -2 -2 -2 -2 -3 -2 -2 -3 -2 -2 -1 -2 -2
4 5 4 4 4 4 3 3 3 3 2 2 2 1 1 0 0 -0 -1 -2 -2 -2 -2 -3 -2 -2 -2 -2 -2 -2 -2 -2 -2 -2 -3 -3 -3 -4 -4 -4 -4 -4 -3
4 4 4 4 3 3 3 3 2 2 1 1 1 1 0 0 -0 -1 -1 -2 -2 -2 -2 -2 -2 -2 -2 -3 -3 -3 -2 -3 -2 -3 -3 -5 -5 -4 -4 -4 -4 -4 -4
3 3 3 3 3 3 2 2 1 1 1 1 0 0 0 -0 -1 -1 -1 -1 -1 -2 -3 -3 -3 -3 -3 -3 -3 -3 -3 -3 -4 -4 -4 -4 -5 -5 -5 -4 -4 -5 -5
3 3 3 2 2 2 1 1 1 0 0 0 -0 -0 -1 -1 -1 -1 -1 -2 -3 -3 -3 -3 -3 -3 -4 -4 -4 -4 -4 -4 -5 -5 -6 -6 -6 -6 -6 -7 -6 -7 -5
2 2 2 2 2 2 1 -0 -1 -1 -1 -1 -1 -1 -1 -1 -2 -2 -3 -3 -4 -4 -4 -4 -3 -4 -4 -4 -5 -5 -6 -6 -7 -7 -8 -8 -8 -8 -8 -8 -8 -7 -6
2 1 1 1 1 0 -1 -0 -0 -1 -1 -1 -1 -2 -2 -2 -3 -3 -4 -4 -3 -3 -4 -4 -5 -5 -6 -6 -8 -9 -9 -9 -10 -10 -10 -10 -9 -9 -9 -9 -9 -9 -8
1 0 1 0 0 -1 -1 -1 -2 -2 -2 -2 -2 -2 -3 -3 -4 -4 -4 -4 -4 -4 -5 -6 -6 -7 -8 -9 -10 -10 -11 -11 -10 -10 -10 -10 -10 -10 -10 -10 -10 -10 -10
-1 -2 -1 -1 -1 -1 -1 -2 -2 -2 -2 -3 -3 -3 -4 -4 -4 -4 -5 -5 -5 -6 -7 -8 -9 -10 -10 -11 -11 -11 -11 -11 -12 -12 -12 -12 -12 -12 -12 -11 -11 -11 -11
-2 -2 -3 -3 -4 -4 -4 -3 -3 -3 -4 -4 -5 -5 -5 -5 -5 -5 -5 -6 -7 -8 -9 -10 -10 -11 -11 -11 -11 -12 -12 -11 -12 -12 -12 -12 -13 -13 -14 -14 -14 -14 -14
-2 -2 -3 -3 -4 -4 -4 -4 -4 -5 -5 -5 -6 -6 -6 -6 -6 -6 -7 -8 -9 -10 -10 -11 -11 -12 -12 -12 -12 -12 -13 -13 -14 -15 -15 -15 -16 -14 -14 -14 -14 -15 -16
-2 -3 -3 -3 -4 -5 -4 -5 -5 -5 -6 -6 -6 -5 -6 -6 -7 -7 -8 -9 -10 -11 -12 -12 -12 -13 -13 -13 -13 -14 -15 -15 -15 -15 -15 -15 -14 -14 -14 -14 -14 -15 -16
-3 -3 -4 -4 -5 -5 -5 -5 -5 -6 -6 -6 -6 -6 -6 -7 -8 -9 -10 -11 -12 -12 -12 -13 -13 -14 -14 -14 -16 -16 -15 -15 -15 -15 -15 -15 -15 -15 -15 -15 -15 -15 -15
-3 -4 -4 -4 -5 -6 -6 -6 -7 -6 -6 -6 -7 -7 -7 -8 -9 -10 -12 -12 -13 -13 -13 -14 -14 -15 -15 -16 -15 -15 -15 -15 -15 -15 -15 -15 -15 -15 -15 -15 -15 -15 -15
-4 -4 -4 -5 -5 -6 -7 -7 -7 -7 -7 -7 -8 -8 -9 -10 -10 -11 -13 -14 -14 -14 -15 -14 -15 -16 -17 -16 -15 -15 -16 -16 -16 -16 -16 -16 -16 -16 -15 -15 -15 -15 -16
-4 -4 -5 -5 -7 -8 -9 -8 -8 -8 -8 -8 -9 -9 -10 -11 -11 -13 -14 -15 -15 -15 -15 -15 -16 -17 -16 -16 -15 -16 -16 -16 -16 -16 -17 -17 -17 -17 -16 -16 -16 -16 -15
-4 -5 -6 -6 -8 -9 -8 -8 -8 -8 -9 -10 -11 -10 -11 -11 -12 -15 -15 -16 -15 -15 -15 -15 -16 -16 -17 -16 -16 -16 -16 -16 -17 -17 -17 -17 -17 -17 -17 -16 -16 -16 -16
-4 -5 -6 -8 -8 -9 -9 -9 -9 -9 -11 -12 -13 -11 -12 -13 -13 -15 -15 -15 -15 -15 -15 -16 -16 -16 -16 -17 -17 -17 -17 -17 -17 -17 -17 -17 -17 -17 -17 -17 -17 -17 -16
-6 -7 -8 -9 -10 -10 -11 -11 -11 -12 -13 -13 -14 -14 -14 -14 -15 -15 -15 -15 -15 -16 -15 -16 -16 -16 -17 -17 -17 -17 -17 -17 -17 -17 -18 -18 -18 -18 -18 -18 -17 -17 -17
-9 -10 -10 -10 -10 -10 -11 -12 -12 -12 -13 -13 -13 -14 -14 -15 -15 -15 -15 -16 -17 -15 -16 -16 -16 -17 -17 -17 -17 -18 -18 -18 -18 -18 -18 -18 -19 -18 -18 -18 -17 -17 -17
-9 -10 -10 -10 -11 -11 -12 -12 -12 -12 -12 -13 -14 -15 -14 -14 -15 -15 -16 -17 -16 -16 -16 -16 -17 -17 -17 -18 -18 -18 -18 -19 -18 -18 -18 -18 -18 -18 -18 -17 -17 -17 -17
-10 -10 -10 -11 -11 -12 -13 -12 -13 -13 -14 -13 -14 -15 -14 -15 -15 -15 -16 -16 -16 -16 -16 -17 -17 -17 -18 -18 -18 -18 -19 -19 -19 -19 -19 -18 -18 -18 -18 -17 -17 -17 -17
-10 -11 -12 -13 -13 -13 -13 -13 -13 -14 -14 -14 -14 -14 -15 -15 -15 -15 -16 -16 -16 -16 -16 -17 -17 -17 -18 -18 -18 -18 -18 -19 -19 -18 -18 -18 -18 -18 -18 -18 -17 -17 -17
-11 -12 -13 -13 -13 -14 -14 -14 -14 -14 -14 -14 -14 -15 -15 -16 -15 -15 -16 -16 -16 -16 -17 -17 -17 -17 -18 -18 -18 -18 -18 -18 -18 -18 -18 -18 -18 -18 -18 -18 -17 -17 -17
-11 -13 -13 -14 -14 -15 -15 -13 -14 -14 -15 -15 -15 -15 -16 -16 -15 -16 -16 -16 -16 -16 -17 -17 -17 -17 -18 -18 -18 -18 -18 -18 -18 -18 -18 -18 -18 -18 -17 -17 -17 -17 -17

GFSMW_700_temp_030.txt.gz
Temp
7 6 5 5 5 5 4 4 4 3 3 3 3 3 3 2 1 1 0 0 -0 -1 -0 -1 -2 -1 -1 -1 -1 -2 -2 -2 -2 -2 -1 -1 -1 -1 -1 -2 -3 -2 -2
6 6 6 5 4 4 4 4 4 4 3 3 2 2 2 1 1 1 0 -0 -0 -0 -1 -1 -1 -2 -2 -2 -2 -3 -3 -3 -2 -3 -3 -2 -2 -2 -2 -3 -3 -3 -4
6 6 6 5 4 4 4 3 3 3 3 2 2 2 1 1 0 0 -0 -1 -1 -2 -2 -1 -2 -2 -2 -2 -3 -3 -3 -3 -3 -3 -3 -3 -3 -3 -2 -3 -3 -3 -4
3 5 4 4 4 3 3 3 3 2 2 2 1 1 1 0 0 -0 -1 -1 -1 -1 -1 -1 -2 -2 -3 -3 -3 -3 -3 -3 -3 -4 -4 -4 -5 -4 -4 -3 -4 -4 -4
2 3 3 3 3 3 3 3 2 1 1 1 1 0 0 -0 -1 -1 -1 -1 -1 -1 -2 -2 -3 -3 -3 -3 -3 -3 -4 -4 -4 -5 -5 -5 -6 -7 -8 -5 -4 -5 -5
3 3 3 2 3 3 3 2 1 1 -0 -0 0 0 0 0 0 -0 -1 -1 -2 -2 -3 -4 -4 -4 -4 -4 -4 -4 -5 -5 -5 -6 -7 -7 -6 -6 -8 -8 -7 -6 -6
2 1 1 1 1 1 1 1 1 0 -0 -1 -1 -1 -1 -1 -2 -2 -3 -3 -3 -4 -4 -4 -4 -4 -5 -5 -6 -6 -7 -7 -8 -9 -9 -10 -10 -10 -10 -10 -10 -9 -7
1 -0 -0 -1 -0 0 1 0 -0 -1 -1 -1 -1 -2 -2 -3 -3 -4 -4 -4 -4 -4 -4 -5 -5 -5 -6 -7 -8 -9 -9 -10 -10 -10 -10 -10 -10 -10 -10 -11 -11 -10 -10
-0 -1 -1 -2 -1 0 -0 -0 -1 -1 -2 -2 -2 -3 -3 -3 -4 -4 -5 -5 -5 -5 -5 -5 -6 -7 -9 -9 -10 -10 -10 -11 -11 -12 -12 -12 -12 -11 -11 -11 -11 -11 -11
-0 -1 -1 -2 -2 -2 -2 -3 -2 -3 -3 -3 -3 -4 -4 -5 -5 -5 -5 -5 -5 -6 -6 -7 -8 -9 -10 -10 -11 -11 -11 -11 -12 -12 -12 -12 -13 -13 -13 -13 -13 -13 -13
-0 -1 -1 -2 -2 -2 -3 -3 -4 -4 -4 -4 -5 -5 -5 -6 -6 -5 -6 -6 -7 -8 -8 -9 -10 -11 -12 -12 -13 -13 -13 -13 -13 -14 -14 -14 -15 -14 -14 -14 -14 -14 -14
-1 -2 -2 -3 -2 -3 -4 -4 -5 -5 -5 -6 -5 -6 -6 -6 -6 -6 -7 -8 -7 -8 -10 -11 -11 -12 -12 -13 -13 -13 -14 -14 -15 -15 -15 -15 -15 -15 -15 -15 -15 -15 -15
-2 -2 -3 -2 -3 -3 -4 -4 -5 -6 -6 -6 -6 -6 -6 -6 -7 -7 -8 -8 -9 -9 -11 -12 -12 -12 -13 -13 -14 -14 -15 -14 -15 -16 -15 -15 -15 -15 -15 -15 -15 -15 -15
-2 -2 -2 -3 -3 -4 -4 -5 -5 -7 -7 -7 -7 -7 -7 -7 -8 -8 -9 -9 -10 -11 -12 -13 -14 -14 -14 -14 -15 -15 -15 -15 -16 -15 -16 -16 -16 -16 -16 -15 -16 -16 -16
-1 -1 -2 -3 -4 -4 -4 -6 -7 -7 -8 -8 -8 -8 -8 -8 -8 -9 -10 -11 -11 -12 -14 -14 -14 -15 -15 -16 -16 -16 -15 -16 -16 -16 -16 -16 -16 -17 -17 -17 -16 -16 -16
-2 -3 -3 -3 -3 -4 -6 -7 -8 -9 -8 -9 -10 -10 -11 -11 -10 -11 -12 -12 -14 -14 -14 -15 -15 -15 -16 -16 -16 -15 -16 -16 -16 -16 -16 -16 -17 -17 -18 -18 -17 -16 -16
-3 -3 -4 -4 -6 -6 -9 -9 -9 -10 -10 -10 -11 -11 -12 -12 -13 -12 -14 -14 -14 -15 -15 -15 -15 -15 -16 -16 -16 -16 -16 -17 -17 -17 -17 -17 -17 -17 -17 -17 -17 -17 -16
-5 -5 -5 -6 -7 -9 -8 -9 -9 -10 -10 -11 -11 -12 -12 -12 -13 -13 -15 -15 -15 -15 -15 -15 -15 -16 -16 -17 -16 -17 -17 -17 -17 -17 -17 -18 -17 -18 -18 -18 -17 -17 -17
-5 -5 -7 -8 -9 -9 -9 -9 -10 -10 -11 -11 -12 -12 -12 -12 -13 -14 -15 -15 -15 -15 -15 -15 -16 -16 -16 -17 -17 -17 -17 -17 -17 -18 -18 -18 -18 -18 -18 -18 -17 -17 -17
-5 -7 -9 -9 -9 -10 -10 -10 -11 -11 -12 -11 -11 -11 -12 -13 -13 -14 -14 -15 -15 -15 -15 -16 -16 -16 -17 -17 -17 -17 -18 -18 -18 -18 -18 -18 -19 -19 -19 -19 -18 -18 -18
-9 -9 -9 -9 -10 -10 -11 -11 -12 -12 -12 -12 -11 -13 -12 -13 -14 -14 -15 -15 -15 -15 -15 -16 -16 -17 -17 -17 -17 -18 -18 -18 -18 -19 -19 -19 -19 -19 -19 -19 -19 -18 -18
-9 -10 -10 -10 -11 -11 -12 -13 -13 -13 -13 -13 -13 -13 -13 -14 -14 -15 -15 -16 -16 -16 -16 -16 -16 -16 -17 -17 -18 -18 -18 -19 -19 -19 -19 -19 -19 -19 -19 -19 -18 -18 -18
-9 -10 -10 -11 -11 -12 -13 -13 -13 -14 -14 -13 -13 -14 -14 -14 -14 -15 -16 -16 -16 -16 -16 -16 -16 -16 -17 -17 -18 -18 -18 -19 -19 -19 -19 -19 -19 -19 -19 -19 -18 -18 -18
-10 -12 -11 -11 -13 -13 -13 -13 -14 -14 -14 -14 -14 -14 -15 -15 -15 -15 -16 -16 -16 -16 -16 -16 -17 -17 -17 -17 -18 -18 -18 -18 -19 -19 -19 -19 -19 -19 -18 -18 -18 -18 -18
-11 -11 -12 -13 -13 -14 -13 -13 -14 -14 -14 -14 -14 -15 -15 -15 -15 -16 -16 -16 -16 -16 -16 -17 -17 -17 -17 -17 -18 -18 -18 -18 -18 -18 -18 -18 -18 -18 -18 -18 -18 -18 -18
-11 -12 -12 -12 -13 -13 -13 -13 -14 -14 -14 -14 -15 -15 -15 -15 -16 -16 -16 -16 -16 -16 -17 -17 -17 -17 -17 -18 -18 -18 -18 -18 -18 -18 -18 -18 -18 -18 -18 -18 -18 -17 -17

GFSMW_700_temp_033.txt.gz
Temp
7 6 6 5 5 5 5 4 4 3 3 3 2 3 2 2 1 -0 -1 -1 -1 -0 -1 -1 -1 -1 -1 -1 -1 -2 -2 -2 -3 -2 -2 -2 -2 -2 -2 -2 -2 -2 -3
7 7 6 5 5 5 5 4 4 4 3 3 3 2 2 1 0 0 -0 -0 -0 -0 -1 -1 -1 -1 -1 -1 -2 -2 -2 -3 -3 -4 -3 -3 -2 -3 -2 -2 -2 -3 -3
7 6 6 5 5 4 4 4 3 3 3 3 2 2 1 1 1 0 -1 -1 -1 -2 -2 -2 -2 -2 -2 -3 -3 -3 -3 -3 -3 -3 -4 -4 -3 -3 -3 -3 -3 -4 -4
6 5 5 5 4 4 4 3 3 3 3 2 1 1 0 -0 -0 -1 -1 -1 -1 -1 -1 -2 -2 -2 -3 -3 -4 -4 -4 -4 -4 -4 -4 -5 -6 -6 -4 -4 -4 -4 -4
5 4 4 4 3 3 2 2 2 2 2 2 1 0 0 0 -0 -0 -1 -1 -1 -1 -2 -2 -3 -4 -4 -4 -4 -4 -4 -4 -5 -5 -6 -6 -6 -8 -8 -6 -5 -6 -6
2 3 3 3 3 3 3 2 1 1 -0 -1 -1 -1 -1 -1 -1 -1 -2 -2 -2 -2 -3 -3 -4 -4 -4 -4 -4 -4 -5 -6 -7 -7 -8 -9 -9 -9 -10 -9 -8 -8 -8
2 0 1 0 1 2 1 1 1 0 -0 -1 -1 -2 -2 -3 -3 -3 -3 -3 -3 -3 -4 -5 -5 -5 -5 -5 -5 -6 -7 -8 -8 -9 -10 -10 -11 -11 -10 -11 -10 -10 -9
1 0 1 1 1 0 -0 -0 -1 -1 -1 -1 -1 -2 -3 -4 -4 -4 -4 -4 -4 -5 -5 -5 -5 -6 -6 -6 -7 -8 -9 -10 -10 -11 -11 -11 -11 -12 -12 -12 -11 -11 -11
0 -0 -0 -0 0 0 -0 -1 -1 -2 -2 -2 -3 -4 -4 -5 -5 -4 -4 -5 -5 -5 -6 -6 -6 -7 -7 -8 -9 -10 -11 -11 -12 -12 -12 -13 -13 -13 -12 -13 -13 -13 -12
-0 -1 -1 -1 -1 -1 -2 -2 -3 -3 -4 -4 -4 -5 -5 -5 -5 -5 -5 -6 -6 -7 -7 -7 -8 -8 -9 -10 -11 -12 -12 -12 -13 -13 -13 -13 -14 -14 -14 -14 -14 -14 -13
-0 -0 -1 -2 -2 -2 -2 -2 -3 -3 -4 -4 -5 -6 -6 -6 -6 -6 -7 -7 -8 -8 -8 -9 -9 -10 -11 -12 -12 -13 -13 -13 -14 -14 -14 -15 -15 -16 -15 -15 -15 -15 -15
-0 -1 -1 -1 -2 -2 -2 -3 -4 -4 -4 -5 -6 -6 -6 -7 -7 -7 -7 -8 -8 -9 -10 -10 -12 -13 -13 -13 -14 -14 -14 -14 -15 -15 -16 -16 -16 -16 -16 -16 -16 -16 -15
0 -1 -1 -2 -3 -3 -3 -4 -4 -4 -4 -5 -6 -6 -7 -8 -8 -8 -8 -9 -10 -11 -11 -13 -13 -14 -14 -14 -14 -15 -15 -15 -15 -16 -16 -16 -16 -16 -16 -16 -16 -16 -16
-1 -2 -2 -2 -2 -4 -4 -4 -4 -4 -6 -6 -6 -8 -8 -8 -8 -9 -10 -11 -12 -12 -12 -13 -14 -14 -15 -15 -15 -15 -15 -15 -16 -16 -16 -16 -16 -16 -16 -16 -16 -16 -16
-1 -1 -2 -2 -3 -3 -4 -4 -5 -6 -6 -7 -8 -9 -10 -10 -10 -10 -12 -12 -13 -12 -13 -14 -15 -16 -15 -15 -16 -16 -16 -16 -16 -16 -16 -16 -16 -17 -17 -17 -17 -17 -17
-1 -2 -3 -3 -4 -4 -5 -6 -7 -8 -9 -9 -10 -10 -11 -12 -11 -12 -12 -13 -13 -12 -13 -14 -16 -15 -15 -16 -16 -16 -16 -16 -16 -16 -17 -17 -17 -17 -17 -18 -18 -18 -17
-2 -3 -4 -4 -5 -6 -7 -9 -10 -10 -10 -10 -10 -10 -11 -11 -12 -12 -12 -12 -13 -14 -14 -15 -15 -16 -16 -16 -16 -16 -16 -17 -17 -17 -17 -17 -17 -18 -18 -18 -18 -18 -18
-3 -4 -5 -6 -8 -9 -10 -9 -9 -10 -10 -11 -11 -11 -12 -12 -13 -12 -13 -13 -14 -14 -15 -15 -15 -16 -16 -16 -17 -17 -17 -17 -17 -18 -18 -18 -18 -18 -18 -18 -18 -18 -18
-5 -5 -7 -8 -8 -9 -9 -9 -10 -10 -11 -11 -12 -12 -12 -13 -12 -13 -13 -14 -14 -15 -15 -15 -16 -16 -16 -16 -16 -17 -17 -17 -17 -18 -18 -18 -18 -18 -19 -19 -19 -18 -18
-5 -6 -8 -8 -9 -9 -10 -10 -10 -11 -12 -12 -13 -13 -13 -14 -13 -14 -14 -14 -14 -15 -15 -15 -16 -16 -17 -17 -17 -17 -17 -17 -18 -18 -19 -19 -19 -19 -19 -19 -19 -19 -19
-7 -8 -8 -9 -9 -10 -10 -11 -11 -12 -13 -13 -13 -14 -14 -14 -14 -14 -14 -15 -15 -15 -15 -16 -16 -16 -17 -17 -17 -17 -17 -18 -18 -18 -18 -19 -19 -19 -19 -20 -19 -19 -18
-8 -8 -9 -9 -10 -11 -11 -12 -13 -14 -13 -14 -14 -14 -14 -14 -14 -15 -15 -15 -15 -15 -16 -16 -16 -17 -17 -17 -17 -17 -18 -18 -18 -18 -19 -19 -19 -19 -19 -19 -19 -19 -19
-8 -9 -10 -10 -11 -11 -12 -13 -14 -13 -13 -14 -14 -14 -14 -15 -15 -15 -15 -15 -15 -16 -16 -16 -16 -17 -17 -17 -17 -18 -18 -18 -18 -19 -19 -19 -19 -19 -19 -19 -19 -19 -19
-9 -10 -10 -10 -11 -12 -13 -13 -13 -13 -13 -14 -14 -14 -14 -14 -15 -15 -15 -16 -16 -16 -16 -16 -17 -17 -17 -17 -17 -17 -17 -18 -18 -19 -18 -19 -19 -19 -19 -19 -19 -19 -19
-9 -10 -11 -11 -12 -12 -13 -13 -13 -13 -13 -14 -14 -14 -14 -14 -14 -15 -15 -15 -16 -16 -16 -16 -17 -17 -17 -17 -17 -17 -17 -18 -18 -18 -18 -18 -19 -19 -19 -19 -19 -18 -18
-10 -11 -11 -11 -12 -12 -12 -13 -13 -13 -13 -14 -14 -14 -14 -15 -15 -15 -15 -16 -16 -16 -16 -17 -17 -17 -17 -17 -17 -17 -18 -18 -18 -18 -18 -18 -18 -18 -18 -18 -18 -18 -18

GFSMW_700_temp_036.txt.gz
Temp
7 6 5 5 5 4 4 4 3 3 3 2 2 2 1 1 1 0 -0 -1 -1 -1 -1 -1 -2 -1 -1 -1 -2 -1 -1 -2 -2 -1 -1 -2 -2 -2 -3 -3 -3 -3 -3
7 6 5 5 5 5 4 4 4 3 3 2 2 2 1 1 -0 -1 -1 -1 -1 -2 -2 -2 -2 -2 -3 -3 -3 -3 -2 -2 -2 -3 -2 -2 -2 -2 -3 -3 -3 -3 -3
6 6 6 6 5 5 4 4 3 3 2 2 2 2 1 0 -0 -1 -1 -1 -2 -2 -2 -2 -3 -3 -3 -4 -4 -4 -4 -4 -4 -4 -4 -4 -3 -3 -3 -3 -3 -3 -4
6 5 5 5 5 4 4 3 3 3 3 2 2 1 0 -1 -1 -1 -1 -2 -2 -2 -2 -3 -3 -4 -4 -4 -4 -5 -4 -4 -4 -5 -5 -5 -5 -5 -4 -4 -4 -4 -5
6 5 5 4 4 4 4 3 2 2 3 2 2 1 -0 -1 -1 -1 -1 -1 -2 -2 -3 -4 -4 -4 -5 -4 -4 -4 -5 -5 -5 -6 -6 -7 -7 -8 -8 -6 -6 -7 -8
4 5 4 4 3 3 3 2 2 1 1 1 0 -1 -1 -2 -1 -2 -2 -2 -3 -4 -4 -4 -4 -4 -4 -5 -5 -5 -6 -6 -7 -7 -8 -9 -9 -10 -10 -10 -9 -9 -9
3 3 3 3 3 2 2 1 1 1 -0 -1 -1 -2 -2 -3 -2 -3 -4 -4 -5 -5 -5 -5 -5 -6 -6 -6 -6 -7 -7 -8 -8 -10 -10 -11 -11 -11 -11 -12 -11 -11 -10
1 1 1 1 0 0 0 -0 -1 -1 -1 -2 -2 -3 -3 -4 -4 -5 -5 -5 -5 -6 -6 -6 -7 -7 -7 -7 -8 -8 -9 -10 -11 -11 -12 -12 -12 -13 -13 -13 -13 -13 -12
-0 -1 -1 -1 -1 -1 -2 -2 -2 -2 -3 -3 -3 -4 -4 -4 -5 -5 -6 -6 -6 -6 -7 -7 -7 -8 -8 -9 -10 -10 -11 -12 -12 -12 -13 -13 -13 -14 -14 -14 -14 -14 -13
-0 -1 -1 -1 -2 -1 -2 -2 -2 -3 -3 -4 -4 -5 -4 -5 -6 -7 -7 -7 -7 -7 -8 -8 -8 -9 -10 -11 -11 -12 -13 -14 -14 -14 -14 -14 -14 -15 -15 -15 -15 -15 -15
-1 -2 -1 -1 -1 -2 -2 -3 -3 -3 -4 -5 -5 -5 -6 -7 -7 -7 -8 -8 -8 -9 -10 -10 -10 -11 -11 -12 -13 -14 -14 -14 -15 -15 -15 -15 -15 -16 -16 -16 -16 -16 -16
-1 -1 -2 -2 -2 -2 -2 -2 -2 -4 -5 -4 -5 -6 -7 -7 -7 -8 -8 -9 -10 -11 -12 -12 -12 -12 -12 -12 -13 -14 -14 -15 -15 -16 -16 -16 -16 -16 -17 -16 -16 -16 -16
-1 -1 -2 -2 -3 -2 -2 -3 -3 -4 -4 -5 -6 -6 -8 -9 -9 -8 -10 -10 -11 -11 -12 -12 -12 -12 -13 -14 -14 -15 -15 -16 -16 -16 -16 -16 -16 -16 -16 -16 -16 -16 -16
-1 -1 -2 -2 -1 -1 -2 -3 -4 -4 -5 -6 -7 -8 -9 -10 -10 -10 -11 -11 -12 -12 -12 -13 -13 -13 -14 -15 -15 -15 -16 -16 -16 -16 -16 -16 -16 -16 -17 -17 -16 -16 -16
-1 -2 -1 -1 -1 -2 -3 -4 -5 -6 -7 -8 -9 -9 -10 -10 -11 -11 -12 -12 -12 -13 -12 -14 -14 -14 -15 -15 -15 -15 -16 -16 -16 -16 -16 -17 -17 -17 -17 -17 -17 -17 -17
-1 -1 -1 -2 -3 -3 -4 -5 -6 -7 -9 -10 -10 -11 -11 -11 -12 -12 -13 -13 -13 -13 -14 -14 -14 -15 -15 -15 -15 -16 -16 -16 -16 -16 -17 -17 -17 -17 -18 -18 -18 -18 -18
-2 -2 -2 -3 -4 -5 -5 -7 -9 -10 -10 -10 -10 -10 -11 -12 -13 -13 -14 -14 -13 -14 -15 -15 -15 -15 -15 -15 -15 -16 -16 -16 -16 -17 -17 -17 -18 -18 -18 -18 -18 -18 -18
-2 -3 -4 -5 -5 -6 -8 -9 -10 -10 -10 -10 -10 -11 -12 -13 -13 -14 -14 -13 -13 -14 -15 -15 -15 -16 -16 -16 -16 -16 -16 -17 -17 -17 -18 -18 -18 -18 -18 -19 -19 -19 -19
-3 -4 -5 -6 -7 -8 -9 -9 -10 -10 -10 -11 -12 -13 -14 -14 -14 -14 -14 -14 -14 -14 -15 -15 -16 -16 -16 -16 -16 -16 -17 -17 -17 -17 -18 -18 -18 -19 -19 -19 -19 -19 -19
-5 -6 -6 -7 -8 -9 -9 -10 -10 -10 -11 -12 -13 -14 -14 -13 -14 -14 -14 -14 -14 -15 -15 -16 -16 -16 -16 -16 -16 -17 -17 -16 -17 -17 -18 -18 -18 -18 -19 -19 -19 -19 -19
-6 -7 -8 -8 -9 -9 -10 -10 -11 -11 -12 -13 -13 -13 -14 -14 -14 -15 -14 -15 -16 -16 -16 -16 -16 -16 -16 -16 -17 -17 -17 -17 -17 -17 -18 -18 -18 -19 -19 -19 -20 -19 -19
-7 -8 -8 -9 -9 -10 -11 -11 -11 -12 -12 -13 -13 -13 -14 -14 -14 -14 -14 -15 -15 -16 -16 -16 -16 -16 -16 -17 -17 -17 -17 -17 -17 -18 -18 -18 -19 -19 -19 -19 -19 -20 -20
-8 -8 -9 -9 -10 -11 -11 -11 -12 -12 -12 -13 -13 -14 -14 -14 -14 -14 -14 -15 -15 -16 -16 -16 -16 -16 -17 -17 -17 -17 -17 -17 -17 -18 -18 -18 -19 -19 -19 -19 -19 -19 -20
-8 -9 -9 -10 -11 -11 -11 -12 -12 -12 -12 -13 -13 -13 -14 -14 -14 -14 -15 -15 -15 -16 -16 -16 -16 -16 -17 -17 -17 -17 -17 -17 -18 -18 -18 -18 -18 -19 -19 -19 -19 -19 -19
-9 -9 -10 -11 -11 -11 -11 -12 -12 -12 -13 -13 -13 -13 -14 -14 -14 -15 -15 -15 -15 -16 -16 -16 -16 -17 -17 -17 -17 -17 -17 -17 -18 -18 -18 -18 -18 -18 -18 -19 -18 -19 -19
-9 -10 -10 -11 -11 -11 -12 -12 -12 -12 -13 -13 -13 -14 -14 -14 -15 -15 -15 -15 -15 -16 -16 -16 -16 -17 -17 -17 -17 -17 -17 -18 -18 -18 -18 -18 -18 -18 -18 -18 -18 -18 -19

GFSMW_700_temp_039.txt.gz
Temp
7 6 6 5 5 5 4 3 3 3 2 2 2 2 2 1 1 0 -1 -2 -1 -1 -1 -2 -2 -2 -2 -2 -2 -1 -1 -2 -2 -2 -2 -2 -2 -2 -3 -3 -3 -3 -3
7 7 6 6 5 4 4 4 4 4 3 3 2 2 1 0 -1 -1 -2 -2 -2 -2 -2 -2 -3 -3 -4 -4 -4 -4 -3 -3 -3 -3 -3 -3 -2 -2 -3 -3 -3 -3 -3
6 6 5 5 5 5 4 4 3 2 2 2 1 1 0 -1 -1 -2 -1 -1 -2 -2 -2 -3 -3 -4 -4 -4 -4 -4 -4 -4 -5 -5 -5 -5 -4 -4 -4 -4 -4 -4 -4
5 5 4 4 4 3 3 2 2 2 2 1 0 -0 -1 -1 -1 -1 -0 -1 -1 -1 -2 -2 -3 -4 -4 -4 -5 -5 -5 -5 -5 -6 -6 -6 -6 -6 -5 -6 -6 -6 -6
5 4 4 4 3 2 2 2 2 2 1 1 1 0 -0 -0 -0 -1 -2 -2 -2 -3 -3 -4 -4 -4 -4 -5 -5 -5 -5 -6 -6 -6 -7 -7 -8 -8 -8 -7 -8 -8 -9
4 3 3 3 2 2 2 2 2 2 1 0 -0 -1 -1 -2 -2 -2 -3 -3 -3 -4 -5 -5 -5 -5 -5 -5 -6 -6 -7 -7 -7 -8 -8 -9 -9 -9 -10 -10 -10 -10 -10
2 2 2 2 1 2 2 2 1 0 -0 -1 -1 -2 -2 -3 -3 -4 -4 -4 -5 -5 -6 -6 -6 -7 -7 -7 -7 -8 -8 -9 -9 -10 -10 -11 -12 -12 -12 -12 -12 -11 -11
2 1 1 1 1 1 1 0 -0 -1 -1 -1 -2 -2 -3 -3 -4 -5 -5 -5 -6 -7 -7 -8 -8 -8 -8 -8 -9 -9 -10 -10 -11 -12 -13 -13 -13 -13 -14 -14 -14 -13 -13
1 0 0 0 -0 -2 -1 -2 -2 -1 -2 -2 -3 -3 -3 -4 -5 -6 -7 -7 -7 -8 -8 -8 -9 -9 -10 -10 -10 -10 -11 -11 -12 -13 -14 -14 -14 -14 -14 -15 -15 -15 -15
1 -0 -0 -1 -1 -2 -2 -2 -2 -2 -3 -3 -3 -5 -5 -5 -6 -7 -8 -8 -8 -9 -9 -10 -10 -11 -11 -11 -11 -12 -12 -13 -13 -14 -15 -15 -15 -15 -16 -16 -16 -16 -16
-0 -0 -1 -2 -2 -2 -2 -3 -2 -2 -3 -4 -4 -5 -5 -6 -7 -7 -8 -9 -9 -10 -11 -11 -11 -12 -12 -12 -12 -13 -13 -13 -14 -15 -15 -15 -16 -16 -16 -16 -17 -16 -17
-0 -1 -1 -2 -2 -2 -3 -3 -2 -3 -4 -4 -5 -5 -5 -6 -7 -9 -10 -10 -11 -11 -12 -12 -13 -12 -13 -13 -13 -13 -14 -14 -14 -15 -15 -15 -16 -16 -16 -16 -16 -17 -17
-1 -1 -2 -2 -3 -4 -4 -4 -3 -3 -4 -5 -5 -6 -7 -8 -9 -10 -11 -11 -12 -12 -13 -13 -13 -13 -13 -14 -14 -14 -14 -15 -15 -15 -16 -16 -16 -16 -16 -16 -16 -16 -17
-1 -2 -2 -3 -3 -3 -2 -2 -3 -4 -5 -5 -6 -7 -9 -10 -11 -11 -11 -12 -13 -13 -13 -13 -13 -14 -14 -14 -15 -15 -15 -16 -16 -16 -16 -16 -16 -16 -16 -16 -17 -17 -17
-2 -2 -2 -3 -2 -2 -3 -3 -4 -5 -5 -6 -7 -9 -10 -11 -11 -12 -13 -13 -13 -13 -13 -13 -14 -15 -15 -15 -15 -15 -16 -16 -16 -16 -16 -16 -16 -17 -17 -17 -17 -17 -17
-2 -2 -2 -2 -2 -3 -3 -4 -5 -6 -6 -7 -9 -9 -10 -10 -11 -12 -12 -13 -14 -14 -13 -13 -14 -15 -15 -16 -15 -16 -16 -16 -16 -16 -16 -17 -17 -17 -17 -18 -18 -18 -18
-2 -2 -2 -3 -3 -4 -5 -5 -6 -7 -8 -9 -9 -10 -11 -11 -12 -12 -13 -13 -14 -14 -14 -14 -15 -15 -15 -15 -16 -16 -16 -16 -16 -17 -17 -17 -17 -17 -18 -18 -18 -19 -19
-2 -2 -3 -4 -5 -5 -5 -6 -7 -8 -9 -9 -10 -11 -11 -12 -12 -13 -13 -14 -14 -15 -14 -15 -15 -15 -16 -16 -16 -16 -16 -17 -17 -17 -17 -17 -17 -18 -18 -18 -18 -19 -19
-3 -4 -5 -5 -6 -6 -6 -8 -8 -9 -10 -10 -11 -12 -12 -13 -13 -13 -13 -14 -15 -14 -15 -15 -15 -16 -16 -16 -16 -16 -16 -17 -17 -17 -17 -17 -17 -18 -18 -18 -19 -19 -19
-4 -5 -6 -6 -6 -7 -8 -8 -9 -10 -10 -11 -12 -12 -12 -13 -13 -13 -14 -14 -14 -14 -15 -16 -16 -16 -16 -16 -16 -16 -17 -17 -17 -17 -17 -17 -18 -18 -18 -19 -19 -19 -19
-5 -6 -6 -7 -7 -8 -8 -9 -10 -10 -11 -12 -12 -12 -13 -13 -13 -14 -14 -14 -15 -15 -15 -16 -16 -16 -16 -16 -16 -17 -17 -17 -17 -17 -17 -18 -18 -18 -19 -19 -19 -19 -20
-6 -7 -7 -7 -8 -9 -9 -10 -11 -11 -11 -12 -12 -12 -13 -13 -13 -14 -14 -15 -15 -15 -15 -16 -16 -16 -16 -16 -17 -17 -17 -17 -17 -17 -17 -18 -18 -18 -19 -19 -19 -19 -20
-7 -7 -7 -8 -9 -10 -10 -11 -11 -11 -12 -12 -12 -12 -13 -13 -14 -14 -14 -15 -15 -15 -15 -16 -16 -16 -16 -17 -17 -17 -17 -17 -17 -17 -18 -18 -18 -18 -18 -19 -19 -19 -19
-8 -8 -8 -9 -9 -10 -11 -11 -11 -12 -12 -12 -12 -12 -13 -13 -14 -14 -15 -15 -15 -15 -16 -16 -16 -16 -16 -17 -17 -17 -17 -17 -17 -17 -18 -18 -18 -18 -18 -18 -19 -19 -19
-8 -9 -9 -9 -10 -11 -11 -12 -12 -12 -12 -12 -12 -13 -13 -14 -15 -15 -15 -15 -15 -16 -16 -16 -16 -16 -17 -17 -17 -17 -17 -18 -17 -18 -18 -18 -18 -18 -18 -18 -18 -19 -19
-9 -9 -10 -10 -11 -11 -12 -12 -12 -12 -12 -13 -13 -13 -14 -14 -15 -15 -15 -15 -15 -16 -16 -16 -16 -16 -16 -17 -17 -17 -18 -18 -18 -18 -18 -18 -18 -18 -18 -19 -19 -19 -19